Time,TemperatureF,DewpointF,PressureIn,WindDirection,WindDirectionDegrees,WindSpeedMPH,WindSpeedGustMPH,Humidity,HourlyPrecipIn,Conditions,Clouds,dailyrainin,SolarRadiationWatts/m^2,SoftwareType,DateUTC
2013-08-28 13:14:00,67.0,66.0,-100.00,WSW,249,0.0,1.0,96,0.00,,,0.80,101.000000,,2013-08-28 17:14:00,
2013-08-28 13:52:00,71.0,69.0,-100.00,West,278,0.0,1.0,93,0.00,,,0.80,180.000000,,2013-08-28 17:52:00,
2013-08-28 14:02:00,71.0,69.0,-100.00,West,278,0.0,1.0,93,0.00,,,0.80,180.000000,,2013-08-28 18:02:00,
2013-08-28 14:12:00,71.0,69.0,-100.00,West,278,0.0,1.0,93,0.00,,,0.80,180.000000,,2013-08-28 18:12:00,
2013-08-28 14:42:00,71.0,68.0,-100.00,SW,229,1.0,1.0,89,0.00,,,0.80,193.000000,,2013-08-28 18:42:00,
2013-08-28 14:53:00,71.0,68.0,-100.00,SW,229,1.0,1.0,89,0.00,,,0.80,193.000000,,2013-08-28 18:53:00,
2013-08-28 15:02:00,71.0,68.0,-100.00,SW,229,1.0,1.0,89,0.00,,,0.80,193.000000,,2013-08-28 19:02:00,
2013-08-28 15:12:00,71.0,68.0,-100.00,SW,229,1.0,1.0,89,0.00,,,0.80,193.000000,,2013-08-28 19:12:00,
2013-08-28 15:42:00,70.0,67.0,-100.00,WNW,287,0.0,1.0,91,0.00,,,0.80,99.000000,,2013-08-28 19:42:00,
2013-08-28 15:52:00,70.0,67.0,-100.00,WNW,287,0.0,1.0,91,0.00,,,0.80,99.000000,,2013-08-28 19:52:00,
2013-08-28 16:03:00,70.0,67.0,-100.00,WNW,287,0.0,1.0,91,0.00,,,0.80,99.000000,,2013-08-28 20:03:00,
2013-08-28 16:12:00,70.0,67.0,-100.00,WNW,287,0.0,1.0,91,0.00,,,0.80,99.000000,,2013-08-28 20:12:00,
2013-08-28 16:43:00,69.0,67.0,-100.00,NW,309,0.0,1.0,94,0.00,,,0.80,27.000000,,2013-08-28 20:43:00,
2013-08-28 16:52:00,69.0,67.0,-100.00,NW,309,0.0,1.0,94,0.00,,,0.80,27.000000,,2013-08-28 20:52:00,
2013-08-28 17:01:00,69.0,67.0,-100.00,NW,309,0.0,1.0,94,0.00,,,0.80,27.000000,,2013-08-28 21:01:00,
2013-08-28 17:12:00,69.0,67.0,-100.00,NW,309,0.0,1.0,94,0.00,,,0.80,27.000000,,2013-08-28 21:12:00,
2013-08-28 17:15:00,68.0,67.0,-100.00,NW,317,0.0,1.0,97,0.00,,,0.80,6.000000,,2013-08-28 21:15:00,
2013-08-28 17:44:00,68.0,67.0,-100.00,NW,317,0.0,1.0,97,0.00,,,0.80,6.000000,,2013-08-28 21:44:00,
2013-08-28 17:58:00,68.0,67.0,-100.00,NW,317,0.0,1.0,97,0.00,,,0.80,6.000000,,2013-08-28 21:58:00,
2013-08-28 18:08:00,68.0,67.0,-100.00,NW,317,0.0,1.0,97,0.00,,,0.80,6.000000,,2013-08-28 22:08:00,
2013-08-28 18:43:00,68.0,67.0,-100.00,NW,313,1.0,1.0,98,0.04,,,0.84,27.000000,,2013-08-28 22:43:00,
2013-08-28 18:54:00,68.0,67.0,-100.00,NW,313,1.0,1.0,98,0.04,,,0.84,27.000000,,2013-08-28 22:54:00,
2013-08-28 19:03:00,68.0,67.0,-100.00,NW,313,1.0,1.0,98,0.04,,,0.84,27.000000,,2013-08-28 23:03:00,
2013-08-28 19:13:00,68.0,67.0,-100.00,NW,313,1.0,1.0,98,0.04,,,0.84,27.000000,,2013-08-28 23:13:00,
2013-08-28 19:42:00,67.0,67.0,-100.00,NW,313,0.0,1.0,99,0.00,,,0.84,32.000000,,2013-08-28 23:42:00,
2013-08-28 19:53:00,67.0,67.0,-100.00,NW,313,0.0,1.0,99,0.00,,,0.84,32.000000,,2013-08-28 23:53:00,
2013-08-28 20:03:00,67.0,67.0,-100.00,NW,313,0.0,1.0,99,0.00,,,0.84,32.000000,,2013-08-29 00:03:00,
2013-08-28 20:12:00,67.0,67.0,-100.00,NW,313,0.0,1.0,99,0.00,,,0.84,32.000000,,2013-08-29 00:12:00,
2013-08-28 21:04:00,66.0,66.0,-100.00,NW,307,0.0,0.0,100,0.00,,,0.84,4.000000,,2013-08-29 01:04:00,
2013-08-28 21:13:00,66.0,66.0,-100.00,NW,307,0.0,0.0,100,0.00,,,0.84,4.000000,,2013-08-29 01:13:00,
2013-08-28 21:42:00,66.0,66.0,-100.00,WNW,282,1.0,1.0,100,0.00,,,0.84,0.000000,,2013-08-29 01:42:00,
2013-08-28 21:52:00,66.0,66.0,-100.00,WNW,282,1.0,1.0,100,0.00,,,0.84,0.000000,,2013-08-29 01:52:00,
2013-08-28 22:03:00,66.0,66.0,-100.00,WNW,282,1.0,1.0,100,0.00,,,0.84,0.000000,,2013-08-29 02:03:00,
2013-08-28 22:12:00,66.0,66.0,-100.00,WNW,282,1.0,1.0,100,0.00,,,0.84,0.000000,,2013-08-29 02:12:00,
2013-08-28 22:52:00,67.0,67.0,-100.00,WNW,286,1.0,3.0,100,0.00,,,0.84,0.000000,,2013-08-29 02:52:00,
2013-08-28 23:02:00,67.0,67.0,-100.00,WNW,286,1.0,3.0,100,0.00,,,0.84,0.000000,,2013-08-29 03:02:00,
2013-08-28 23:12:00,67.0,67.0,-100.00,WNW,286,1.0,3.0,100,0.00,,,0.84,0.000000,,2013-08-29 03:12:00,
2013-08-28 23:15:00,66.0,66.0,-100.00,WNW,295,3.0,4.0,100,0.02,,,0.86,0.000000,,2013-08-29 03:15:00,
2013-08-28 23:45:00,66.0,66.0,-100.00,WNW,295,3.0,4.0,100,0.02,,,0.86,0.000000,,2013-08-29 03:45:00,
2013-08-28 23:57:00,66.0,66.0,-100.00,WNW,295,3.0,4.0,100,0.02,,,0.86,0.000000,,2013-08-29 03:57:00,